EW6604 Weather Reports


Display with metric or nautical units.
time (UTC)temp
F
wind
direction
speed
MPH
gust
MPH
rain 1hr
in
rain 24hr
in
rain mn
in
humidity
%
barometer
mb
20190220130214 67 325 0.0 2.0 0.01 0.01 0.01 1 1020.1
20190220123226 65 325 2.0 2.0 0.01 0.01 0.01 1 1020.0
20190220120223 64 325 0.0 1.0 0.00 0.00 0.00 1 1019.9
20190220113218 64 325 3.0 3.0 0.00 0.00 0.00 1 1019.7
20190220110208 65 325 1.0 4.0 0.00 0.00 0.00 1 1019.7
20190220103220 65 325 3.0 4.0 0.00 0.00 0.00 1 1019.5
20190220100211 65 325 2.0 3.0 0.00 0.00 0.00 1 1019.4
20190220093209 65 325 1.0 3.0 0.00 0.00 0.00 1 1019.5
20190220090221 65 325 3.0 4.0 0.00 0.00 0.00 1 1019.6
20190220083211 65 325 3.0 6.0 0.00 0.00 0.00 1 1020.1
20190220080224 65 325 5.0 6.0 0.00 0.00 0.00 1 1020.3
20190220073218 65 325 2.0 3.0 0.00 0.00 0.00 1 1020.7
20190220070211 66 325 2.0 3.0 0.00 0.00 0.00 1 1021.1
20190220063224 66 325 3.0 4.0 0.00 0.00 0.00 1 1021.3
20190220060216 67 325 2.0 3.0 0.00 0.00 0.00 1 1021.5
20190220053226 67 325 2.0 3.0 0.00 0.00 0.00 1 1021.5
20190220050211 67 325 0.0 0.0 0.00 0.00 0.00 1 1021.6
20190220043224 67 325 5.0 7.0 0.00 0.00 0.00 1 1022.0
20190220040214 67 325 4.0 5.0 0.00 0.00 0.00 1 1022.2
20190220033208 67 325 1.0 2.0 0.00 0.00 0.00 1 1022.2
20190220030221 67 325 0.0 0.0 0.00 0.00 0.00 1 1022.2
20190220023216 66 325 0.0 0.0 0.00 0.00 0.00 1 1022.2
20190220020208 67 325 1.0 3.0 0.00 0.00 0.00 1 1022.1
20190220013220 66 325 3.0 7.0 0.00 0.00 0.00 1 1022.1
20190220010212 67 325 5.0 9.0 0.00 0.00 0.00 1 1022.0
20190220003221 67 325 7.0 9.0 0.00 0.00 0.00 1 1021.5
20190220000216 68 325 6.0 10.0 0.00 0.00 0.00 1 1021.4
20190219233226 69 325 8.0 12.0 0.00 0.00 0.00 1 1021.0
20190219230218 70 325 11.0 12.0 0.00 0.00 0.00 1 1021.0
20190219223211 71 325 8.0 12.0 0.00 0.00 0.00 1 1020.9
20190219220223 70 327 11.0 14.0 0.00 0.00 0.00 1 1020.7
20190219213216 74 354 8.0 11.0 0.00 0.00 0.00 1 1020.6
20190219210212 75 59 8.0 11.0 0.00 0.00 0.00 1 1020.5
20190219203224 74 59 7.0 9.0 0.00 0.00 0.00 1 1020.7
20190219200216 74 59 10.0 13.0 0.00 0.00 0.00 1 1021.1
20190219193210 74 58 9.0 13.0 0.00 0.00 0.00 1 1021.6
20190219190225 74 58 10.0 12.0 0.00 0.00 0.00 1 1022.0
20190219183218 74 58 7.0 12.0 0.00 0.00 0.00 1 1022.6
20190219180209 74 58 7.0 12.0 0.00 0.00 0.00 1 1023.1
20190219173220 74 58 11.0 16.0 0.00 0.00 0.00 1 1023.6
20190219170215 74 58 14.0 18.0 0.00 0.00 0.00 1 1024.0
20190219163213 74 58 17.0 22.0 0.00 0.00 0.00 1 1024.3
20190219160225 75 58 18.0 20.0 0.00 0.00 0.00 1 1024.4
20190219153216 74 58 15.0 20.0 0.00 0.00 0.00 1 1024.6
20190219150209 73 58 16.0 22.0 0.00 0.00 0.00 1 1024.5
20190219143222 73 58 11.0 18.0 0.00 0.00 0.00 1 1024.4
20190219140222 70 55 2.0 6.0 0.00 0.00 0.00 1 1024.4
20190219133214 68 55 2.0 4.0 0.00 0.00 0.00 1 1024.1